DW5479 Weather Reports


time (UTC)temp
F
wind
direction
speed
knots
gust
knots
rain 1hr
in
rain 24hr
in
rain mn
in
humidity
%
barometer
mb
20260507001515 72 141 5.2 13.9 0.00 0.00 0.00 75 1008.7
20260507000029 73 156 4.3 14.8 0.00 0.00 0.00 75 1008.2
20260506234608 75 184 5.2 14.8 0.00 0.00 0.00 74 1008.2
20260506233020 76 146 5.2 13.9 0.00 0.00 0.00 74 1007.9
20260506231537 77 176 6.1 15.6 0.00 0.00 0.00 73 1007.7
20260506224507 81 156 4.3 9.6 0.00 0.00 0.00 74 1007.3
20260506223026 81 196 4.3 8.7 0.00 0.00 0.00 74 1007.0
20260506221542 82 178 3.5 8.7 0.00 0.00 0.00 75 1006.9
20260506220104 83 194 3.5 8.7 0.00 0.00 0.00 74 1006.9
20260506214522 83 149 4.3 10.4 0.00 0.00 0.00 74 1006.9
20260506213039 84 153 3.5 6.1 0.00 0.00 0.00 73 1006.7
20260506211608 84 137 0.9 4.3 0.00 0.00 0.00 69 1006.8
20260506210034 84 169 1.7 5.2 0.00 0.00 0.00 71 1007.0
20260506204549 84 124 2.6 6.1 0.00 0.00 0.00 69 1007.1
20260506203005 85 140 0.9 2.6 0.00 0.00 0.00 70 1007.3
20260506201520 85 176 1.7 4.3 0.00 0.00 0.00 69 1007.2
20260506200041 84 163 0.9 5.2 0.00 0.00 0.00 72 1007.3
20260506194557 84 160 1.7 5.2 0.00 0.00 0.00 72 1007.4
20260506193013 84 138 2.6 6.1 0.00 0.00 0.00 71 1007.6
20260506191534 83 164 0.9 4.3 0.00 0.00 0.00 75 1007.7
20260506190053 82 177 1.7 7.0 0.00 0.00 0.00 76 1007.9
20260506184506 82 185 0.9 7.0 0.00 0.00 0.00 77 1008.0
20260506183008 82 129 3.5 7.0 0.00 0.00 0.00 75 1008.3
20260506181527 83 158 1.7 4.3 0.00 0.00 0.00 77 1008.3
20260506180046 82 165 2.6 5.2 0.00 0.00 0.00 77 1008.6
20260506174600 81 162 0.9 5.2 0.00 0.00 0.00 81 1008.6
20260506173019 80 148 2.6 5.2 0.00 0.00 0.00 81 1008.8
20260506171529 79 151 2.6 6.1 0.00 0.00 0.00 83 1008.9
20260506170057 79 152 3.5 7.0 0.00 0.00 0.00 83 1008.9
20260506164515 79 185 2.6 6.1 0.00 0.00 0.00 85 1009.0
20260506163036 78 170 1.7 4.3 0.00 0.00 0.00 85 1009.0
20260506161642 78 136 0.9 2.6 0.00 0.00 0.00 85 1009.0
20260506160027 77 153 0.0 1.7 0.00 0.00 0.00 85 1008.7
20260506154550 77 141 0.0 0.9 0.00 0.00 0.00 86 1008.6
20260506153001 76 160 0.0 1.7 0.00 0.00 0.00 86 1008.3
20260506151517 76 152 0.0 1.7 0.00 0.00 0.00 86 1008.2
20260506150036 76 165 0.9 2.6 0.00 0.00 0.00 87 1007.9
20260506144549 76 179 0.9 2.6 0.00 0.00 0.00 87 1007.8
20260506143003 75 181 0.9 2.6 0.00 0.00 0.00 87 1007.7
20260506141520 75 172 2.6 4.3 0.00 0.00 0.00 87 1007.6
20260506140036 74 169 1.7 6.1 0.00 0.00 0.00 87 1007.0
20260506134602 74 179 2.6 7.8 0.00 0.00 0.00 87 1006.9
20260506133028 74 129 1.7 5.2 0.00 0.00 0.00 87 1006.9
20260506131551 73 153 1.7 4.3 0.00 0.00 0.00 87 1006.9
20260506130011 73 129 1.7 3.5 0.00 0.00 0.00 87 1006.9
20260506124543 73 149 0.0 2.6 0.00 0.00 0.00 87 1006.9
20260506123009 73 165 0.0 2.6 0.00 0.00 0.00 87 1006.7
20260506121523 73 160 0.9 2.6 0.00 0.00 0.00 87 1006.7
20260506120043 73 167 0.0 1.7 0.00 0.00 0.00 87 1006.6
20260506114559 73 173 0.0 2.6 0.00 0.00 0.00 87 1006.7
20260506113026 73 130 0.0 1.7 0.00 0.00 0.00 87 1006.6
20260506111554 73 145 0.9 5.2 0.00 0.00 0.00 87 1006.4
20260506110103 73 152 2.6 6.1 0.00 0.00 0.00 87 1006.3
20260506104517 73 165 2.6 5.2 0.00 0.00 0.00 87 1006.3
20260506103044 73 159 1.7 3.5 0.00 0.00 0.00 87 1006.3
20260506101600 74 168 0.9 4.3 0.00 0.00 0.00 87 1006.3
20260506100006 74 169 1.7 5.2 0.00 0.00 0.00 87 1006.3
20260506094525 74 160 1.7 5.2 0.00 0.00 0.00 86 1006.2
20260506093047 75 171 2.6 6.1 0.00 0.00 0.00 86 1006.1
20260506091559 75 172 1.7 4.3 0.00 0.00 0.00 86 1006.3
20260506090037 75 179 1.7 5.2 0.00 0.00 0.00 86 1006.4
20260506084623 75 168 3.5 7.8 0.00 0.00 0.00 86 1006.5
20260506083018 75 200 1.7 4.3 0.00 0.00 0.00 86 1006.6
20260506081546 75 159 1.7 5.2 0.00 0.00 0.00 86 1006.4
20260506073039 75 167 2.6 4.3 0.00 0.00 0.00 85 1006.6
20260506071545 75 140 2.6 8.7 0.00 0.00 0.00 85 1006.5
20260506061506 75 154 7.0 13.0 0.00 0.00 0.00 85 1006.7
20260506044653 75 187 3.5 9.6 0.00 0.00 0.00 86 1006.8
20260506043004 75 161 2.6 10.4 0.00 0.00 0.00 86 1006.8
20260506041517 76 153 3.5 7.0 0.00 0.00 0.00 85 1006.7
20260506040035 76 165 6.1 12.2 0.00 0.00 0.00 85 1006.4
20260506034622 76 171 5.2 8.7 0.00 0.00 0.00 85 1006.4
20260506033015 77 126 3.5 7.0 0.00 0.00 0.00 85 1006.4
20260506031540 77 155 1.7 7.8 0.00 0.00 0.00 84 1006.1
20260506030053 77 153 1.7 6.1 0.00 0.00 0.00 84 1005.9
20260506024504 77 183 3.5 6.1 0.00 0.00 0.00 84 1005.6
20260506023028 78 140 2.6 7.8 0.00 0.00 0.00 83 1005.4
20260506021544 78 148 1.7 7.8 0.00 0.00 0.00 83 1004.9
20260506014527 79 214 3.5 8.7 0.00 0.00 0.00 81 1004.7
20260506013052 80 137 5.2 8.7 0.00 0.00 0.00 80 1004.6
20260506011515 80 166 2.6 5.2 0.00 0.00 0.00 79 1004.4
20260506010025 81 168 2.6 7.8 0.00 0.00 0.00 78 1004.0
20260506004602 82 138 3.5 10.4 0.00 0.00 0.00 76 1003.8
20260506003113 83 177 2.6 7.8 0.00 0.00 0.00 74 1003.7